Location: 3 Angels Observatory
(30.5437°N, 88.5068°W)
Time: 08:29:02
(UTC-05:00)

Amateur Radio Satellites - All Passes

Search period start: 31 July 2014 07:59
Search period end: 01 August 2014 07:59
Location: 3 Angels Observatory, 30.5437°N, 88.5068°W

Satellite Date Start Highest point End Downlink Frequencies (MHz)
Time Altitude Azimuth
PANSAT 31 Jul 08:58:11 09:00:35 16° 204° (SSW) 09:02:59 not established
SO-67 31 Jul 08:58:24 09:00:05 13° 289° (WNW) 09:01:45 435.3500 MHz FM
Sapphire 31 Jul 09:17:04 09:21:36 27° 58° (ENE) 09:26:07 437.095 MHz 1200 baud AX-25 AFSK
UKube-1 31 Jul 09:25:09 09:28:28 21° 97° (E) 09:31:46 145.840 MHz, 145.915 MHz
HO-68 31 Jul 09:25:25 09:32:08 43° 100° (E) 09:38:49 435.675 MHz FM
PCSat 31 Jul 09:49:38 09:54:59 58° 64° (ENE) 10:00:17 145.825 MHz
Oscar 11 31 Jul 10:07:00 10:10:58 34° 98° (E) 10:14:56 145.825 FM, Beacon 2401.500 USB
FUNcube-1 31 Jul 10:35:43 10:39:10 24° 97° (E) 10:42:40 145.950 - 145.970 MHz USB
RS-15 31 Jul 10:50:42 10:54:24 12° 99° (E) 10:58:04 29.354 - 29.394 USB, Beacon 29.352 USB
Sapphire 31 Jul 11:00:12 11:04:58 32° 252° (WSW) 11:09:42 437.095 MHz 1200 baud AX-25 AFSK
UKube-1 31 Jul 11:01:04 11:04:33 24° 289° (WNW) 11:08:02 145.840 MHz, 145.915 MHz
SO-50 31 Jul 11:02:38 11:06:27 29° 111° (ESE) 11:10:19 436.795 FM
HO-68 31 Jul 11:13:36 11:19:31 29° 294° (WNW) 11:25:25 435.675 MHz FM
PCSat 31 Jul 11:35:16 11:37:48 13° 257° (WSW) 11:40:20 145.825 MHz
Oscar 11 31 Jul 11:44:19 11:46:50 15° 291° (WNW) 11:49:21 145.825 FM, Beacon 2401.500 USB
FUNcube-1 31 Jul 12:12:21 12:15:23 20° 289° (WNW) 12:18:27 145.950 - 145.970 MHz USB
Oscar 16 31 Jul 12:33:35 12:36:09 14° 66° (ENE) 12:38:43 437.025 USB, Beacon 2401.1428
SO-50 31 Jul 12:43:32 12:46:57 22° 306° (NW) 12:50:27 436.795 FM
UOSAT-12 31 Jul 12:49:05 12:52:48 25° 110° (ESE) 12:56:35 437.025 FM, 437.400 FM
RS-15 31 Jul 12:53:49 13:05:03 78° 114° (ESE) 13:15:59 29.354 - 29.394 USB, Beacon 29.352 USB
ITAMSAT 1 31 Jul 13:01:28 13:02:39 11° 64° (ENE) 13:03:51 435.822 SSB
Uribyol 2 31 Jul 13:17:44 13:21:12 18° 68° (ENE) 13:24:39 436.500 FM
AO-27 31 Jul 13:18:55 13:22:22 18° 67° (ENE) 13:25:48 436.795 MHz FM
AO-Echo 31 Jul 13:36:55 13:41:25 29° 71° (ENE) 13:45:55 ?
Oscar 19 31 Jul 13:41:01 13:46:05 71° 76° (ENE) 13:51:11 437.125 CW, 437.150 USB
JAS-1B 31 Jul 13:45:03 13:52:42 33° 64° (ENE) 14:00:59 435.800 - 435.900 CW/SSB
Gurwin Techsat 1B 31 Jul 13:56:39 13:59:53 17° 67° (ENE) 14:03:06 435.225 FM
Oscar 16 31 Jul 14:10:01 14:14:59 53° 259° (W) 14:20:00 437.025 USB, Beacon 2401.1428
AO-40 31 Jul 14:24:25 14:31:18 16° 204° (SSW) 14:35:21 Beacon 2401.320
UOSAT-12 31 Jul 14:28:59 14:32:49 26° 305° (NW) 14:36:44 437.025 FM, 437.400 FM
ITAMSAT 1 31 Jul 14:36:17 14:41:29 72° 258° (WSW) 14:46:41 435.822 SSB
AO-7 31 Jul 14:39:22 14:43:15 14° 56° (NE) 14:47:09 29.400 - 29.500 MHz
KITSAT 1 31 Jul 14:48:33 14:56:06 42° 58° (ENE) 15:03:35 435.175 FM
Uribyol 2 31 Jul 14:55:24 15:00:18 42° 260° (W) 15:05:12 436.500 FM
AO-27 31 Jul 14:56:34 15:01:29 43° 260° (W) 15:06:26 436.795 MHz FM
TMSAT-1 31 Jul 15:07:56 15:13:09 64° 75° (ENE) 15:18:24 436.925 FM
RS-15 31 Jul 15:09:41 15:18:26 26° 314° (NW) 15:27:07 29.354 - 29.394 USB, Beacon 29.352 USB
AO-Echo 31 Jul 15:15:35 15:20:02 27° 263° (W) 15:24:30 ?
JAS-1B 31 Jul 15:34:08 15:42:31 55° 261° (W) 15:52:01 435.800 - 435.900 CW/SSB
Gurwin Techsat 1B 31 Jul 15:34:17 15:39:23 48° 260° (W) 15:44:31 435.225 FM
Uosat F 31 Jul 15:36:57 15:40:56 24° 69° (ENE) 15:44:55 435.120 FM
Saudisat 1A 31 Jul 15:59:25 16:03:29 36° 58° (ENE) 16:07:31 436.775 MHz
AO-7 31 Jul 16:26:24 16:34:45 82° 72° (ENE) 16:43:08 29.400 - 29.500 MHz
OPAL 31 Jul 16:42:56 16:47:56 53° 103° (ESE) 16:52:58 ?
KITSAT 1 31 Jul 16:44:09 16:51:16 36° 253° (WSW) 16:58:22 435.175 FM
TMSAT-1 31 Jul 16:51:49 16:53:23 11° 267° (W) 16:54:58 436.925 FM
Uosat F 31 Jul 17:15:09 17:19:31 30° 262° (W) 17:23:54 435.120 FM
Saudisat 1A 31 Jul 17:40:03 17:42:44 16° 251° (WSW) 17:45:24 436.775 MHz
Hamsat 31 Jul 17:46:37 17:50:25 35° 74° (ENE) 17:54:15 145.90 MHz
JAS-2 31 Jul 17:48:55 17:56:13 45° 72° (ENE) 18:03:07 435.800 - 435.900 CW/SSB, 435.910 FM
AO-7 31 Jul 18:23:33 18:28:08 16° 266° (W) 18:32:45 29.400 - 29.500 MHz
OPAL 31 Jul 18:23:36 18:26:20 15° 295° (WNW) 18:29:04 ?
STRAND 1 31 Jul 19:11:00 19:15:48 41° 99° (E) 19:20:34 ?
MaSat-1 31 Jul 19:22:53 19:23:53 11° 98° (E) 19:24:55 437.345 MHz
SO-67 31 Jul 19:24:17 19:27:44 82° 78° (ENE) 19:31:13 435.3500 MHz FM
Hamsat 31 Jul 19:24:33 19:26:28 13° 266° (W) 19:28:23 145.90 MHz
JAS-2 31 Jul 19:34:26 19:41:08 31° 263° (W) 19:47:36 435.800 - 435.900 CW/SSB, 435.910 FM
HO-68 31 Jul 19:50:03 19:54:37 18° 62° (ENE) 19:59:10 435.675 MHz FM
RS-15 31 Jul 19:53:10 19:57:24 13° 30° (NNE) 20:01:40 29.354 - 29.394 USB, Beacon 29.352 USB
STRAND 1 31 Jul 20:51:17 20:54:37 18° 293° (WNW) 20:57:56 ?
MaSat-1 31 Jul 20:56:44 21:00:27 42° 296° (WNW) 21:04:46 437.345 MHz
Oscar 11 31 Jul 20:58:17 21:00:32 14° 69° (ENE) 21:02:47 145.825 FM, Beacon 2401.500 USB
ISS 31 Jul 21:01:01 21:03:32 20° 127° (SE) 21:06:04 145.800 FM
SO-50 31 Jul 21:19:00 21:23:47 74° 62° (ENE) 21:28:37 436.795 FM
FUNcube-1 31 Jul 21:29:40 21:30:30 11° 68° (ENE) 21:31:20 145.950 - 145.970 MHz USB
HO-68 31 Jul 21:34:27 21:41:35 69° 256° (WSW) 21:48:44 435.675 MHz FM
UKube-1 31 Jul 21:50:10 21:54:27 57° 259° (W) 21:58:45 145.840 MHz, 145.915 MHz
RS-15 31 Jul 22:02:19 22:13:05 52° 57° (ENE) 22:24:13 29.354 - 29.394 USB, Beacon 29.352 USB
Oscar 11 31 Jul 22:32:23 22:36:21 36° 261° (W) 22:40:20 145.825 FM, Beacon 2401.500 USB
ISS 31 Jul 22:37:18 22:40:07 25° 321° (NW) 22:42:57 145.800 FM
PCSat 31 Jul 22:44:40 22:47:59 17° 104° (ESE) 22:51:18 145.825 MHz
FUNcube-1 31 Jul 23:02:16 23:06:28 48° 260° (W) 23:10:35 145.950 - 145.970 MHz USB
UOSAT-12 31 Jul 23:03:03 23:07:42 58° 61° (ENE) 23:12:15 437.025 FM, 437.400 FM
Sapphire 31 Jul 23:52:26 23:57:48 76° 113° (ESE) 00:03:12 437.095 MHz 1200 baud AX-25 AFSK
RS-15 01 Aug 00:15:11 00:25:00 37° 253° (WSW) 00:35:14 29.354 - 29.394 USB, Beacon 29.352 USB
PCSat 01 Aug 00:25:44 00:30:55 48° 298° (WNW) 00:36:10 145.825 MHz
UOSAT-12 01 Aug 00:46:10 00:47:16 11° 254° (WSW) 00:48:21 437.025 FM, 437.400 FM
Sapphire 01 Aug 01:39:32 01:41:45 12° 308° (NW) 01:43:59 437.095 MHz 1200 baud AX-25 AFSK
AO-Echo 01 Aug 01:51:48 01:54:00 13° 93° (E) 01:56:10 ?
PANSAT 01 Aug 01:53:18 01:55:57 18° 157° (SSE) 01:58:36 not established
Oscar 19 01 Aug 01:58:31 02:03:23 40° 99° (E) 02:08:14 437.125 CW, 437.150 USB
Oscar 16 01 Aug 02:27:13 02:32:25 87° 103° (ESE) 02:37:36 437.025 USB, Beacon 2401.1428
ITAMSAT 1 01 Aug 02:54:59 03:00:07 67° 102° (ESE) 03:05:14 435.822 SSB
Uribyol 2 01 Aug 03:13:34 03:18:43 73° 285° (WNW) 03:23:51 436.500 FM
AO-27 01 Aug 03:15:05 03:20:15 74° 284° (WNW) 03:25:23 436.795 MHz FM
JAS-1B 01 Aug 03:27:54 03:36:49 77° 102° (ESE) 03:44:12 435.800 - 435.900 CW/SSB
AO-Echo 01 Aug 03:28:15 03:33:01 48° 286° (WNW) 03:37:38 ?
TMSAT-1 01 Aug 03:29:46 03:34:44 40° 99° (E) 03:39:39 436.925 FM
PANSAT 01 Aug 03:32:03 03:35:47 45° 168° (SSE) 03:39:30 not established
Oscar 19 01 Aug 03:38:51 03:42:22 19° 292° (WNW) 03:45:52 437.125 CW, 437.150 USB
Uosat F 01 Aug 03:52:32 03:53:45 11° 93° (E) 03:54:59 435.120 FM
OPAL 01 Aug 03:52:41 03:57:25 49° 72° (ENE) 04:02:11 ?
Gurwin Techsat 1B 01 Aug 03:56:05 04:01:23 75° 284° (WNW) 04:06:39 435.225 FM
AO-7 01 Aug 04:34:56 04:42:35 40° 100° (E) 04:50:09 29.400 - 29.500 MHz
ITAMSAT 1 01 Aug 04:37:25 04:38:59 11° 295° (WNW) 04:40:33 435.822 SSB
KITSAT 1 01 Aug 05:09:46 05:17:42 62° 111° (ESE) 05:25:38 435.175 FM
ISS 01 Aug 05:10:12 05:12:58 23° 39° (NE) 05:15:42 145.800 FM
TMSAT-1 01 Aug 05:10:38 05:14:17 19° 292° (WNW) 05:17:56 436.925 FM
PANSAT 01 Aug 05:11:59 05:15:49 64° 181° (S) 05:19:40 not established
JAS-1B 01 Aug 05:20:15 05:26:02 20° 302° (WNW) 05:31:19 435.800 - 435.900 CW/SSB
MaSat-1 01 Aug 05:21:54 05:24:34 14° 55° (NE) 05:27:09 437.345 MHz
Uosat F 01 Aug 05:27:54 05:32:49 60° 286° (WNW) 05:37:43 435.120 FM
OPAL 01 Aug 05:34:10 05:36:30 13° 264° (W) 05:38:50 ?
Hamsat 01 Aug 05:40:55 05:41:22 10° 93° (E) 05:41:48 145.90 MHz
Saudisat 1A 01 Aug 06:00:35 06:04:36 35° 113° (ESE) 06:08:38 436.775 MHz
STRAND 1 01 Aug 06:21:35 06:26:10 34° 71° (ENE) 06:30:46 ?
AO-7 01 Aug 06:27:45 06:35:10 38° 295° (WNW) 06:42:34 29.400 - 29.500 MHz
ISS 01 Aug 06:46:52 06:49:35 23° 232° (SW) 06:52:18 145.800 FM
JAS-2 01 Aug 06:50:38 06:56:05 53° 100° (E) 07:01:08 435.800 - 435.900 CW/SSB, 435.910 FM
PANSAT 01 Aug 06:52:12 06:55:51 41° 193° (SSW) 06:59:30 not established
MaSat-1 01 Aug 06:57:15 07:02:21 60° 252° (WSW) 07:06:58 437.345 MHz
KITSAT 1 01 Aug 07:07:02 07:13:30 26° 308° (NW) 07:20:01 435.175 FM
Hamsat 01 Aug 07:13:20 07:17:30 48° 285° (WNW) 07:21:41 145.90 MHz
Saudisat 1A 01 Aug 07:41:13 07:44:15 18° 307° (NW) 07:47:17 436.775 MHz
